This is the latest recevied weather packets stored in our database for station/object YO6LRV-3. If no packets are shown the sender has not sent any weather packets the latest 10 day(s).
| Time | Temp. | Humidity | Pressure | Rain* | Wind** | Luminosity | Snow |
|---|---|---|---|---|---|---|---|
| 1788146838 | 19.44° C | 76% | 1017.8 hPa | - | - | - | - |
| 1788145931 | 19.44° C | 74% | 1017.9 hPa | - | - | - | - |
| 1788145031 | 20° C | 72% | 1017.8 hPa | - | - | - | - |
| 1788144131 | 20° C | 72% | 1017.9 hPa | - | - | - | - |
| 1788143231 | 20° C | 71% | 1017.9 hPa | - | - | - | - |
| 1788142337 | 20.56° C | 67% | 1018 hPa | - | - | - | - |
| 1788141437 | 20.56° C | 68% | 1017.8 hPa | - | - | - | - |
| 1788140537 | 20.56° C | 70% | 1017.8 hPa | - | - | - | - |
| 1788139637 | 21.11° C | 68% | 1017.7 hPa | - | - | - | - |
| 1788138739 | 21.11° C | 67% | 1017.7 hPa | - | - | - | - |
| 1788137839 | 21.11° C | 68% | 1017.8 hPa | - | - | - | - |
| 1788136932 | 21.11° C | 66% | 1017.8 hPa | - | - | - | - |
| 1788136039 | 21.11° C | 66% | 1017.9 hPa | - | - | - | - |
| 1788135139 | 21.67° C | 65% | 1017.7 hPa | - | - | - | - |
| 1788134239 | 21.67° C | 63% | 1017.8 hPa | - | - | - | - |
| 1788133338 | 22.22° C | 61% | 1017.8 hPa | - | - | - | - |
| 1788132438 | 22.22° C | 60% | 1017.8 hPa | - | - | - | - |
| 1788131538 | 22.78° C | 59% | 1017.9 hPa | - | - | - | - |
| 1788130638 | 22.78° C | 59% | 1017.8 hPa | - | - | - | - |
| 1788128838 | 22.78° C | 56% | 1017.8 hPa | - | - | - | - |
| 1788127938 | 23.33° C | 57% | 1017.8 hPa | - | - | - | - |
| 1788127037 | 23.33° C | 57% | 1017.9 hPa | - | - | - | - |
| 1788126137 | 23.33° C | 57% | 1017.7 hPa | - | - | - | - |
| 1788125237 | 23.33° C | 56% | 1017.7 hPa | - | - | - | - |
| 1788124337 | 23.89° C | 55% | 1017.6 hPa | - | - | - | - |
* Rain since midnight (hover to see other rain measurements)
** Current wind speed in m/s (hover to see current wind gust speed)